Погода в Гайвороне

Украина / Кировоградская область     48˚20′26″N   29˚51′59″E
темп.,
°C
ветер,
м/с
пор.,
м/с
влажн.,
%
обл.,
%
осадки,
мм/ч
давл.,
гПа
погр.,
м
6 декабря, вс
вс623:00−1˚вюв411829 0.0 1030456
02:00−1˚вюв511816 0.0 1030466
05:00−2˚вюв510660 0.0 1030442
08:00−3˚вюв610560 0.0 1031438
11:00−1˚вюв59410 0.0 1031502
14:00+1˚вюв69360 0.0 1031559
17:00−2˚в411450 0.0 1030376
20:00−3˚вюв513460 0.0 1031514
7 декабря, пн
пн723:00−4˚вюв612530 0.0 1031501
02:00−4˚в611620 0.0 1031518
05:00−5˚вюв611630 0.0 1030485
08:00−6˚в511630 0.0 1030495
11:00−4˚в710560 0.0 1029650
14:00−2˚вюв610569 0.0 1028697
17:00−3˚в7117392 0.0 1027635
20:00−2˚в7126096 0.1 1027733
8 декабря, вт
вт823:00−2˚вюв7126591 0.0 1026688
02:00−4˚в6126684 0.0 1026627
05:00−5˚в6116982 0.0 1025648
08:00−4˚вюв697890 0.0 1025739
11:00−3˚в5873100 0.1 1025554
14:00−3˚в61078100 0.1 1025418
17:00−3˚в61175100 0.0 1025506
20:00−2˚в5107099 0.0 1026547
9 декабря, ср
ср923:00−3˚в597456 0.0 1025426
02:00−3˚в588175 0.0 1025405
05:00−3˚в597896 0.0 1025416
08:00−3˚в587798 0.0 1025340
11:00−3˚в5878100 0.0 1025380
14:00−2˚всв6979100 0.0 1024301
17:00−1˚в61080100 0.0 1023399
20:00−1˚в5987100 0.0 1023413
10 декабря, чт
чт1023:00в5993100 0.0 1022319
02:00в51096100 0.0 1022362
05:00+1˚в5997100 0.1 1020232
08:00+2˚вюв61298100 0.4 1020326
11:00+4˚вюв61398100 0.7 1020440
14:00+4˚вюв71397100 1.2 1019464
17:00+5˚вюв71496100 0.0 1019527
20:00+6˚вюв81494100 0.0 1018536